Minot AFB, ND

5:42 PM CST on November 21, 2019 (GMT -0600)
Minot Air Force Base

Weather History for KMIB - September, 2019

Change the Weather History Date:

Wednesday, September 25, 2019

  Actual Average Record
Temperature  
Mean Temperature 53 °F -  
Max Temperature 61 °F 63 °F 92 °F (2014)
Min Temperature 44 °F 37 °F 28 °F (2002)
Degree Days  
Heating Degree Days 12    
Growing Degree Days 3 (Base 50)    
Moisture  
Dew Point 40 °F    
Average Humidity 66    
Maximum Humidity 84    
Minimum Humidity 37    
Precipitation  
Precipitation 0.00 in - - ()
Sea Level Pressure  
Sea Level Pressure 29.82 in    
Wind  
Wind Speed 15 mph (WNW)    
Max Wind Speed 26 mph    
Max Gust Speed 33 mph    
Visibility 10 miles    
Events      
Averages and records for this station are not official NWS values.
T = Trace of Precipitation, MM = Missing Value Source: NWS Daily Summary

Daily Weather History Graph

Daily Weather History Graph

Search for Another Location

Airport or City:

Astronomy

Sep. 25, 2019 Rise Set
Actual Time 7:36 AM CDT 7:37 PM CDT
Civil Twilight 7:04 AM CDT 8:08 PM CDT
Nautical Twilight 6:28 AM CDT 8:45 PM CDT
Astronomical Twilight 5:50 AM CDT 9:22 PM CDT
Moon 3:06 AM CDT (9/25) 6:32 PM CDT (9/25)
Length of Visible Light 13h 03m
Length of Day
12h 01m
Waning Crescent, 14% of the Moon is Illuminated
Sep 25
Waning Crescent
Sep 28
New
Oct 5
First Quarter
Oct 13
Full
Oct 21
Last Quarter

Hourly Weather History & Observations

Time (CDT) Temp. Windchill Dew Point Humidity Pressure Visibility Wind Dir Wind Speed Gust Speed Precip Events Conditions
12:56 AM 51.6 °F - 41.4 °F 68% 29.70 in 10.0 mi WNW 13.8 mph 21.9 mph N/A   Partly Cloudy
1:56 AM 48.7 °F - 41.2 °F 75% 29.71 in 10.0 mi West 10.4 mph - N/A   Clear
2:56 AM 47.8 °F - 40.3 °F 75% 29.71 in 10.0 mi West 12.7 mph - N/A   Clear
3:56 AM 47.3 °F - 39.7 °F 75% 29.73 in 10.0 mi West 12.7 mph - N/A   Clear
4:56 AM 45.9 °F 40.8 °F 40.1 °F 80% 29.77 in 10.0 mi West 10.4 mph - N/A   Clear
5:56 AM 45.5 °F 39.6 °F 40.3 °F 82% 29.77 in 10.0 mi West 12.7 mph - N/A   Clear
6:56 AM 45.3 °F 38.1 °F 40.1 °F 82% 29.79 in 10.0 mi WNW 17.3 mph - N/A   Clear
7:56 AM 45.3 °F 38.4 °F 39.9 °F 81% 29.82 in 10.0 mi WNW 16.1 mph 26.5 mph N/A   Clear
8:56 AM 47.5 °F - 40.6 °F 77% 29.83 in 10.0 mi WNW 16.1 mph - N/A   Clear
9:56 AM 51.3 °F - 40.6 °F 67% 29.83 in 10.0 mi WNW 19.6 mph 27.6 mph N/A   Clear
10:56 AM 54.0 °F - 39.9 °F 59% 29.84 in 10.0 mi WNW 20.7 mph 29.9 mph N/A   Clear
11:56 AM 57.0 °F - 40.5 °F 54% 29.85 in 10.0 mi WNW 24.2 mph 29.9 mph N/A   Clear
12:56 PM 59.2 °F - 39.0 °F 47% 29.85 in 10.0 mi WNW 25.3 mph 31.1 mph N/A   Partly Cloudy
1:56 PM 60.1 °F - 36.3 °F 41% 29.84 in 10.0 mi NW 19.6 mph 27.6 mph N/A   Partly Cloudy
2:56 PM 59.5 °F - 34.5 °F 39% 29.84 in 10.0 mi NW 26.5 mph 33.4 mph N/A   Partly Cloudy
3:56 PM 61.3 °F - 34.9 °F 37% 29.84 in 10.0 mi WNW 20.7 mph 29.9 mph N/A   Scattered Clouds
4:56 PM 59.0 °F - 35.2 °F 41% 29.85 in 10.0 mi WNW 21.9 mph - N/A   Partly Cloudy
5:56 PM 58.5 °F - 38.8 °F 48% 29.85 in 10.0 mi West 19.6 mph - N/A   Clear
6:56 PM 55.6 °F - 41.9 °F 60% 29.87 in 10.0 mi West 12.7 mph - N/A   Clear
7:56 PM 50.9 °F - 41.5 °F 70% 29.89 in 10.0 mi West 10.4 mph - N/A   Clear
8:56 PM 48.9 °F - 43.0 °F 80% 29.89 in 10.0 mi WSW 8.1 mph - N/A   Clear
9:56 PM 47.7 °F - 42.8 °F 83% 29.89 in 10.0 mi West 9.2 mph - N/A   Clear
10:56 PM 46.2 °F 41.2 °F 41.0 °F 82% 29.89 in 10.0 mi West 10.4 mph - N/A   Clear
11:56 PM 44.8 °F 41.0 °F 40.3 °F 84% 29.89 in 10.0 mi WSW 6.9 mph - N/A   Clear